TimeCDT,TemperatureF,Dew PointF,Humidity,Sea Level PressureIn,VisibilityMPH,Wind Direction,Wind SpeedMPH,Gust SpeedMPH,PrecipitationIn,Events,Conditions,WindDirDegrees,DateUTC
12:56 AM,55.9,52.0,87,29.93,10.0,Calm,Calm,-,N/A,,Clear,0,2013-09-22 05:56:00
1:56 AM,54.0,52.0,93,29.93,10.0,Calm,Calm,-,N/A,,Clear,0,2013-09-22 06:56:00
2:56 AM,54.0,50.9,89,29.93,10.0,Calm,Calm,-,N/A,,Clear,0,2013-09-22 07:56:00
3:56 AM,52.9,50.9,93,29.93,10.0,Calm,Calm,-,N/A,,Clear,0,2013-09-22 08:56:00
4:56 AM,52.0,50.9,96,29.94,10.0,Calm,Calm,-,N/A,,Clear,0,2013-09-22 09:56:00
5:56 AM,50.0,50.0,100,29.95,7.0,Calm,Calm,-,N/A,,Clear,0,2013-09-22 10:56:00
6:56 AM,50.9,50.9,100,29.96,10.0,Calm,Calm,-,N/A,,Clear,0,2013-09-22 11:56:00
7:56 AM,54.9,52.9,93,29.96,10.0,North,5.8,-,N/A,,Clear,10,2013-09-22 12:56:00
8:56 AM,61.0,54.0,78,29.97,10.0,NNE,4.6,-,N/A,,Clear,20,2013-09-22 13:56:00
9:56 AM,65.8,54.0,65,29.98,10.0,NE,11.5,16.1,N/A,,Clear,40,2013-09-22 14:56:00
10:56 AM,70.0,54.0,57,29.98,10.0,NE,6.9,-,N/A,,Clear,40,2013-09-22 15:56:00
11:56 AM,70.9,52.0,51,29.97,10.0,NNE,9.2,17.3,N/A,,Clear,20,2013-09-22 16:56:00
12:56 PM,73.9,52.0,46,29.97,10.0,North,10.4,-,N/A,,Clear,10,2013-09-22 17:56:00
1:56 PM,73.9,52.9,48,29.96,10.0,NNE,10.4,-,N/A,,Clear,30,2013-09-22 18:56:00
2:56 PM,75.9,52.9,45,29.94,10.0,Variable,6.9,-,N/A,,Clear,0,2013-09-22 19:56:00
3:56 PM,77.0,52.9,43,29.93,10.0,NNE,6.9,-,N/A,,Clear,30,2013-09-22 20:56:00
4:56 PM,75.9,52.0,43,29.93,10.0,Variable,5.8,-,N/A,,Clear,0,2013-09-22 21:56:00
5:56 PM,73.9,54.0,50,29.93,10.0,NE,3.5,-,N/A,,Clear,40,2013-09-22 22:56:00
6:56 PM,63.9,57.9,81,29.94,10.0,Calm,Calm,-,N/A,,Clear,0,2013-09-22 23:56:00
7:56 PM,59.0,56.8,93,29.95,10.0,Calm,Calm,-,N/A,,Clear,0,2013-09-23 00:56:00
8:56 PM,57.9,56.8,96,29.96,10.0,Calm,Calm,-,N/A,,Clear,0,2013-09-23 01:56:00
9:56 PM,55.9,55.9,100,29.97,10.0,Calm,Calm,-,N/A,,Clear,0,2013-09-23 02:56:00
10:56 PM,54.9,54.9,100,29.98,10.0,Calm,Calm,-,N/A,,Clear,0,2013-09-23 03:56:00
11:56 PM,54.0,54.0,100,29.97,10.0,NNE,3.5,-,N/A,,Clear,20,2013-09-23 04:56:00